Philadelphia, PA

11:48 PM EDT on April 22, 2018 (GMT -0400)
Philadelphia International

Weather History for KPHL - October, 2013

Change the Weather History Date:

Thursday, October 10, 2013

  Actual Average Record
Temperature  
Mean Temperature 58 °F 60 °F  
Max Temperature 62 °F 69 °F 90 °F (1939)
Min Temperature 54 °F 50 °F 33 °F (1979)
Degree Days  
Heating Degree Days 7 7  
Month to date heating degree days 18 52  
Since 1 July heating degree days 54 90  
Cooling Degree Days 0 1  
Month to date cooling degree days 60 14  
Year to date cooling degree days 1406 1292  
Growing Degree Days 7 (Base 50)    
Moisture  
Dew Point 53 °F    
Average Humidity 80    
Maximum Humidity 93    
Minimum Humidity 67    
Precipitation  
Precipitation 0.35 in 0.11 in 2.10 in (1971)
Month to date precipitation 0.64 1.10  
Year to date precipitation 46.14 32.90  
Snow  
Snow 0.00 in 0.00 in 2.10 in (1979)
Month to date snowfall 0.0 0.0  
Since 1 July snowfall 0.0 0.0  
Since 1 September snowfall 0.0 0.0  
Snow Depth 0.00 in    
Sea Level Pressure  
Sea Level Pressure 30.12 in    
Wind  
Wind Speed 16 mph (NE)    
Max Wind Speed 22 mph    
Max Gust Speed 29 mph    
Visibility 7 miles    
Events Rain    
T = Trace of Precipitation, MM = Missing Value Source: NWS Daily Summary

Daily Weather History Graph

Daily Weather History Graph

Search for Another Location

Airport or City:

Astronomy

Oct. 10, 2013 Rise Set
Actual Time 7:06 AM EDT 6:28 PM EDT
Civil Twilight 6:39 AM EDT 6:55 PM EDT
Nautical Twilight 6:07 AM EDT 7:27 PM EDT
Astronomical Twilight 5:36 AM EDT 7:58 PM EDT
Moon 12:55 PM EDT (10/10) 11:04 PM EDT (10/10)
Length of Visible Light 12h 16m
Length of Day
11h 22m
Waxing Crescent, 35% of the Moon is Illuminated
Oct 10
Waxing Crescent
Oct 11
First Quarter
Oct 18
Full
Oct 26
Last Quarter
Nov 3
New

Hourly Weather History & Observations

Time (EDT) Temp. Dew Point Humidity Pressure Visibility Wind Dir Wind Speed Gust Speed Precip Events Conditions
12:54 AM 59.0 °F 48.9 °F 69% 30.23 in 10.0 mi NE 11.5 mph - N/A   Overcast
1:54 AM 59.0 °F 48.9 °F 69% 30.22 in 10.0 mi NE 16.1 mph 21.9 mph N/A   Overcast
2:18 AM 59.0 °F 48.2 °F 67% 30.22 in 10.0 mi NE 17.3 mph 23.0 mph 0.00 in Rain Light Rain
2:54 AM 57.9 °F 48.9 °F 72% 30.20 in 10.0 mi NE 20.7 mph 27.6 mph 0.00 in Rain Light Rain
3:07 AM 57.2 °F 48.2 °F 72% 30.20 in 10.0 mi NE 15.0 mph 25.3 mph 0.00 in Rain Light Rain
3:36 AM 57.2 °F 50.0 °F 77% 30.20 in 8.0 mi NE 13.8 mph 23.0 mph 0.01 in Rain Light Rain
3:54 AM 55.9 °F 50.0 °F 80% 30.20 in 8.0 mi NE 16.1 mph 24.2 mph 0.03 in Rain Light Rain
4:54 AM 55.9 °F 51.1 °F 84% 30.19 in 7.0 mi NE 13.8 mph - 0.09 in Rain Light Rain
5:17 AM 55.4 °F 51.8 °F 88% 30.20 in 8.0 mi NE 16.1 mph 21.9 mph 0.02 in Rain Light Rain
5:38 AM 55.4 °F 51.8 °F 88% 30.19 in 10.0 mi NNE 17.3 mph - 0.03 in Rain Light Rain
5:54 AM 55.0 °F 50.0 °F 83% 30.18 in 10.0 mi NNE 17.3 mph - 0.03 in Rain Light Rain
6:12 AM 55.4 °F 50.0 °F 82% 30.18 in 10.0 mi NNE 17.3 mph - 0.00 in Rain Light Rain
6:29 AM 55.4 °F 50.0 °F 82% 30.18 in 10.0 mi NE 15.0 mph - 0.00 in   Overcast
6:38 AM 55.4 °F 50.0 °F 82% 30.18 in 10.0 mi NE 17.3 mph 21.9 mph 0.00 in   Overcast
6:54 AM 55.0 °F 48.9 °F 80% 30.17 in 10.0 mi NE 16.1 mph 21.9 mph 0.00 in Rain Light Rain
7:51 AM 53.6 °F 50.0 °F 88% 30.18 in 10.0 mi NE 16.1 mph - 0.01 in Rain Light Rain
7:54 AM 54.0 °F 48.9 °F 83% 30.17 in 10.0 mi NE 16.1 mph - 0.01 in Rain Light Rain
8:18 AM 53.6 °F 50.0 °F 88% 30.18 in 9.0 mi NNE 15.0 mph 23.0 mph 0.01 in Rain Light Rain
8:54 AM 54.0 °F 50.0 °F 86% 30.18 in 10.0 mi NE 15.0 mph 23.0 mph 0.01 in Rain Light Rain
9:28 AM 55.4 °F 50.0 °F 82% 30.17 in 6.0 mi NE 16.1 mph 24.2 mph 0.00 in Rain Light Rain
9:32 AM 53.6 °F 50.0 °F 88% 30.17 in 4.0 mi NE 17.3 mph - 0.01 in Rain Light Rain
9:35 AM 53.6 °F 50.0 °F 88% 30.17 in 2.5 mi NE 15.0 mph - 0.02 in Rain Rain
9:43 AM 53.6 °F 51.8 °F 94% 30.17 in 3.0 mi NE 18.4 mph - 0.04 in Rain Rain
9:49 AM 53.6 °F 51.8 °F 94% 30.17 in 5.0 mi NE 17.3 mph - 0.04 in Rain Light Rain
9:52 AM 53.6 °F 51.8 °F 94% 30.17 in 7.0 mi NE 19.6 mph - 0.04 in Rain Light Rain
9:54 AM 54.0 °F 51.1 °F 90% 30.17 in 7.0 mi NE 19.6 mph - 0.04 in Rain Light Rain
10:35 AM 55.4 °F 51.8 °F 88% 30.16 in 6.0 mi NE 20.7 mph 25.3 mph 0.00 in Rain Light Rain
10:41 AM 55.4 °F 51.8 °F 88% 30.16 in 4.0 mi NNE 20.7 mph 26.5 mph 0.00 in Rain Light Rain
10:48 AM 55.4 °F 51.8 °F 88% 30.16 in 2.5 mi NNE 16.1 mph 27.6 mph 0.01 in Rain Rain
10:54 AM 55.0 °F 52.0 °F 89% 30.16 in 2.5 mi NNE 16.1 mph 23.0 mph 0.02 in Rain Light Rain
10:57 AM 55.4 °F 51.8 °F 88% 30.15 in 4.0 mi NNE 17.3 mph 23.0 mph 0.00 in Rain Light Rain
10:59 AM 55.4 °F 51.8 °F 88% 30.15 in 6.0 mi NNE 16.1 mph 23.0 mph 0.00 in Rain Light Rain
11:03 AM 55.4 °F 51.8 °F 88% 30.15 in 9.0 mi NNE 17.3 mph 23.0 mph 0.00 in Rain Light Rain
11:54 AM 55.9 °F 52.0 °F 87% 30.15 in 10.0 mi NE 16.1 mph 24.2 mph 0.00 in   Overcast
12:49 PM 57.2 °F 53.6 °F 88% 30.14 in 3.0 mi NE 13.8 mph 24.2 mph 0.01 in Rain Rain
12:51 PM 57.2 °F 53.6 °F 88% 30.14 in 1.8 mi NE 16.1 mph 24.2 mph 0.01 in Rain Rain
12:54 PM 57.0 °F 53.1 °F 87% 30.13 in 1.8 mi NE 18.4 mph 24.2 mph 0.04 in Rain Heavy Rain
12:56 PM 57.2 °F 53.6 °F 88% 30.13 in 3.0 mi NE 17.3 mph 24.2 mph 0.01 in Rain Rain
12:58 PM 57.2 °F 53.6 °F 88% 30.13 in 5.0 mi NE 17.3 mph 24.2 mph 0.01 in Rain Rain
1:02 PM 57.2 °F 53.6 °F 88% 30.13 in 7.0 mi NE 16.1 mph 24.2 mph 0.01 in Rain Light Rain
1:16 PM 57.2 °F 53.6 °F 88% 30.11 in 6.0 mi NNE 19.6 mph 25.3 mph 0.01 in Rain Light Rain
1:22 PM 57.2 °F 53.6 °F 88% 30.11 in 4.0 mi NE 19.6 mph 25.3 mph 0.02 in Rain Light Rain
1:35 PM 57.2 °F 53.6 °F 88% 30.11 in 6.0 mi NE 17.3 mph - 0.02 in Rain Light Rain
1:54 PM 57.0 °F 53.1 °F 87% 30.09 in 6.0 mi NNE 16.1 mph 25.3 mph 0.03 in Rain Light Rain
2:31 PM 57.2 °F 53.6 °F 88% 30.08 in 9.0 mi NE 19.6 mph 26.5 mph 0.01 in   Overcast
2:54 PM 57.9 °F 54.0 °F 87% 30.08 in 9.0 mi NE 17.3 mph - 0.01 in   Overcast
3:52 PM 59.0 °F 55.4 °F 88% 30.07 in 6.0 mi NE 16.1 mph 26.5 mph 0.00 in Rain Light Rain
3:54 PM 59.0 °F 55.0 °F 87% 30.06 in 6.0 mi NE 19.6 mph 26.5 mph 0.00 in Rain Light Rain
4:00 PM 59.0 °F 55.4 °F 88% 30.06 in 4.0 mi NE 16.1 mph 26.5 mph 0.00 in Rain Light Rain
4:14 PM 59.0 °F 55.4 °F 88% 30.05 in 3.0 mi NE 15.0 mph 26.5 mph 0.01 in Rain Rain
4:40 PM 59.0 °F 55.4 °F 88% 30.05 in 2.5 mi NE 16.1 mph 23.0 mph 0.02 in Rain Light Rain
4:54 PM 59.0 °F 55.0 °F 87% 30.05 in 2.5 mi NE 18.4 mph 25.3 mph 0.02 in Rain Light Rain
5:06 PM 59.0 °F 55.4 °F 88% 30.04 in 4.0 mi NE 15.0 mph 24.2 mph 0.00 in Rain Light Rain
5:13 PM 59.0 °F 55.4 °F 88% 30.04 in 7.0 mi NE 15.0 mph - 0.00 in   Overcast
5:54 PM 60.1 °F 55.0 °F 83% 30.05 in 10.0 mi NE 15.0 mph 23.0 mph 0.00 in   Overcast
6:54 PM 60.1 °F 55.9 °F 86% 30.05 in 10.0 mi NE 13.8 mph 21.9 mph N/A   Overcast
7:54 PM 60.1 °F 55.9 °F 86% 30.03 in 10.0 mi NE 13.8 mph 23.0 mph 0.00 in Rain Light Rain
8:54 PM 61.0 °F 57.0 °F 87% 30.03 in 10.0 mi NE 12.7 mph 20.7 mph 0.00 in   Overcast
9:08 PM 60.8 °F 57.2 °F 88% 30.03 in 5.0 mi ENE 12.7 mph 20.7 mph 0.00 in Rain Light Rain
9:12 PM 60.8 °F 57.2 °F 88% 30.03 in 3.0 mi NE 13.8 mph 24.2 mph 0.01 in Rain Rain
9:24 PM 60.8 °F 57.2 °F 88% 30.03 in 5.0 mi NE 11.5 mph - 0.01 in Rain Light Rain
9:36 PM 60.8 °F 57.2 °F 88% 30.03 in 4.0 mi NE 12.7 mph - 0.01 in Rain Light Rain
9:54 PM 61.0 °F 57.0 °F 87% 30.03 in 4.0 mi NE 12.7 mph - 0.02 in Rain Light Rain
10:13 PM 60.8 °F 57.2 °F 88% 30.02 in 6.0 mi NE 15.0 mph 23.0 mph 0.00 in Rain Light Rain
10:22 PM 60.8 °F 57.2 °F 88% 30.02 in 10.0 mi NE 16.1 mph 23.0 mph 0.00 in Rain Light Rain
10:38 PM 60.8 °F 57.2 °F 88% 30.02 in 6.0 mi NE 13.8 mph 23.0 mph 0.00 in Rain Light Rain
10:43 PM 60.8 °F 57.2 °F 88% 30.02 in 4.0 mi ENE 13.8 mph 25.3 mph 0.00 in Rain Light Rain
10:54 PM 61.0 °F 57.0 °F 87% 30.02 in 4.0 mi NE 13.8 mph 25.3 mph 0.00 in Rain Light Rain
11:06 PM 60.8 °F 57.2 °F 88% 30.01 in 10.0 mi NE 13.8 mph 23.0 mph 0.00 in   Overcast
11:54 PM 61.0 °F 57.0 °F 87% 30.00 in 10.0 mi ENE 11.5 mph - 0.00 in   Overcast